Retour au catalogue

STARLINK-36984

ActifCommunicationsVLEO
NORAD 68168·PAYLOAD·🇺🇸 United States

Lancé Mar 14, 2026 depuis Vandenberg Space Force Base

Loading…

Prochains Passages (prochaines 24 heures)

TLE

FraisSource: CelesTrak SupGP

Époque: Sep 14, 2026, 21:25 UTC

1 68168C 26050B   26257.89284722 -.00162410  00000+0 -47995-2 0  2574
2 68168  53.1576 103.7928 0001280  84.6945 124.0670 15.34465007    11

Suivez STARLINK-36984 en temps réel avec AllMySat

Download on the App Store